Regional Weather Roundup
Issued by NWS Albany, NY

Current Version | Previous Version | Graphics & Text | Print | Product List | Glossary On
Versions: 1 2 3 4 5 6 7 8 9 10 11 12 13 14 15 16 17 18 19 20 21 22 23 24 25 26 27 28
000
ASUS41 KALY 210210
RWRALY

NEW YORK STATE HOURLY WEATHER ROUNDUP
NATIONAL WEATHER SERVICE ALBANY NY
1000 PM EDT SUN JUN 20 2021

NOTE: "FAIR" INDICATES FEW OR NO CLOUDS BELOW 12,000 FEET WITH NO
SIGNIFICANT WEATHER AND/OR NO OBSTRUCTIONS TO VISIBILITY.

NYZ032-033-038>043-046>054-057>066-NYZ062>081-082-084-210300-
EAST


CITY           SKY/WX    TMP DP  RH WIND       PRES   REMARKS
ALBANY         PTCLDY    73  65  75 S3        29.76R
GLENS FALLS    CLEAR     67  62  84 CALM      29.76R
POUGHKEEPSIE   MOCLDY    78  68  71 SE6       29.78R
NEWBURGH       PTCLDY    77  70  78 VRB6      29.80R
MONTGOMERY     PTCLDY    73  70  90 CALM      29.78R
WHITE PLAINS   PTCLDY    73  66  78 S5        29.81R
ISLIP          PTCLDY    73  69  87 SW10      29.82R
NEW YORK CITY  PTCLDY    81  67  62 S7        29.79R
CENTRAL PARK   PTCLDY    80  67  64 CALM      29.82R
$$

NYZ005>009-017-018-044>046-055-056-210300-
CENTRAL


CITY           SKY/WX    TMP DP  RH WIND       PRES   REMARKS
FULTON         MOCLDY    73  63  70 VRB3      29.71S
SYRACUSE       MOCLDY    79  63  57 SE7       29.72S
ROME           PTCLDY    71  62  73 E3        29.75R
ELMIRA         MOCLDY    71  68  90 S3        29.76R
BINGHAMTON     MOCLDY    72  66  81 SW6       29.80R THUNDER
MONTICELLO     MOCLDY    75  67  76 S5        29.84R
$$

NYZ026>034-041>043-087-210300-
NORTH


CITY           SKY/WX    TMP DP  RH WIND       PRES   REMARKS
WATERTOWN      PTCLDY    68  59  73 E3        29.70F
FORT DRUM      NOT AVBL
OGDENSBURG     FAIR      61  57  88 CALM      29.69S
MASSENA        PTCLDY    64  56  75 CALM      29.72R
SARANAC LAKE   CLEAR     56  55  97 CALM      29.78R
PLATTSBURGH    NOT AVBL
$$

NYZ001>004-010>016-019>021-085-210300-
WEST


CITY           SKY/WX    TMP DP  RH WIND       PRES   REMARKS
NIAGARA FALLS  PTCLDY    74  67  78 S6        29.68S
BUFFALO        MOCLDY    76  68  76 S6        29.70R
DUNKIRK        PTCLDY    73  66  78 SE5       29.69F
JAMESTOWN      MOCLDY    69  68  96 S13G20    29.77S
WELLSVILLE     LGT RAIN  66  62  87 SW14G29   29.81S
ROCHESTER      MOCLDY    74  65  73 S7        29.71R
PENN YAN       PTCLDY    72  64  76 SW7       29.75R
$$

             KEY
       WCI = WIND CHILL INDEX
       VSB = VISIBILITY
       HX  = HEAT INDEX
$$



USA.gov is the U.S. government's official web portal to all federal, state and local government web resources and services.